Powrót do katalogu

STARLINK-1184

AktywnyŁącznośćVLEO
NORAD 45098·PAYLOAD·🇺🇸 United States

Wystrzelony Jan 29, 2020 z Cape Canaveral Space Force Station

Loading…

Następne Przeloty (najbliższe 24 godziny)

TLE

ŚwieżeSource: CelesTrak SupGP

Epoka: Sep 14, 2026, 21:09 UTC

1 45098C 20006BG  26257.88173611  .00009734  00000+0  46865-3 0  2572
2 45098  53.0509 105.4478 0002816  43.0048   9.3944 15.18237190    12

Śledź STARLINK-1184 w czasie rzeczywistym z AllMySat

Download on the App Store